Weather History for Ohio State University, OH

Change the Weather History Date:

Friday, February 15, 2013

  Actual Average Record
Temperature  
Mean Temperature 29 °F -  
Max Temperature 34 °F 38 °F 64 °F (2005)
Min Temperature 24 °F 24 °F -2 °F (2007)
Degree Days  
Heating Degree Days 36    
Moisture  
Dew Point 28 °F    
Average Humidity 90    
Maximum Humidity 100    
Minimum Humidity 79    
Precipitation  
Precipitation 0.05 in - - ()
Sea Level Pressure  
Sea Level Pressure 30.05 in    
Wind  
Wind Speed 5 mph (NW)    
Max Wind Speed 15 mph    
Max Gust Speed -    
Visibility 5 miles    
Events Fog , Snow    
Averages and records for this station are not official NWS values.
T = Trace of Precipitation, MM = Missing Value Source: NWS Daily Summary

Daily Weather History Graph

Daily Weather History Graph

Search for Another Location

Airport:

Trip Planner

Search our weather history database for the weather conditions in past years. The results will help you decide how hot, cold, wet, or windy it might be!

Date:

Astronomy

Feb. 15, 2013 Rise Set
Actual Time 7:24 AM EST 6:08 PM EST
Civil Twilight 6:57 AM EST 6:36 PM EST
Nautical Twilight 6:25 AM EST 7:07 PM EST
Astronomical Twilight 5:54 AM EST 7:39 PM EST
Moon 10:00 AM EST (2/15) No Moon Set
Length of Visible Light 11h 39m
Length of Day
10h 43m
Waxing Crescent, 30% of the Moon is Illuminated
Feb 15
Waxing Crescent
Feb 17
First Quarter
Feb 25
Full
Mar 4
Last Quarter
Mar 11
New

Hourly Weather History & Observations

Time (EST) Temp. Windchill Dew Point Humidity Pressure Visibility Wind Dir Wind Speed Gust Speed Precip Events Conditions
12:53 AM 32.0 °F 26.4 °F 26.1 °F 79% 29.98 in 10.0 mi West 5.8 mph - N/A   Clear
1:53 AM 30.0 °F 24.1 °F 25.0 °F 82% 29.99 in 10.0 mi SSW 5.8 mph - N/A   Clear
2:53 AM 30.0 °F 26.5 °F 25.0 °F 82% 29.99 in 10.0 mi South 3.5 mph - N/A   Clear
3:53 AM 30.0 °F 25.2 °F 25.0 °F 82% 29.99 in 9.0 mi SW 4.6 mph - N/A   Clear
4:53 AM 28.9 °F 25.2 °F 26.1 °F 89% 30.00 in 9.0 mi SW 3.5 mph - N/A   Clear
5:53 AM 28.9 °F 23.9 °F 26.1 °F 89% 30.03 in 8.0 mi SSW 4.6 mph - N/A   Overcast
6:53 AM 28.9 °F - 27.0 °F 92% 30.03 in 8.0 mi Calm Calm - N/A   Mostly Cloudy
7:53 AM 30.0 °F - 27.0 °F 88% 30.04 in 7.0 mi Calm Calm - N/A   Overcast
8:53 AM 32.0 °F - 28.9 °F 88% 30.07 in 6.0 mi Calm Calm - N/A   Overcast
9:53 AM 34.0 °F 31.0 °F 28.9 °F 82% 30.08 in 7.0 mi SW 3.5 mph - N/A   Overcast
10:22 AM 33.8 °F 28.6 °F 28.4 °F 81% 30.06 in 2.5 mi West 5.8 mph - 0.00 in Snow Light Snow
10:44 AM 32.0 °F 26.4 °F 28.4 °F 87% 30.05 in 1.0 mi WNW 5.8 mph - 0.00 in Snow Light Snow
10:53 AM 32.0 °F 27.5 °F 28.9 °F 88% 30.08 in 1.0 mi WNW 4.6 mph - 0.00 in Snow Light Snow
11:23 AM 30.2 °F - 30.2 °F 100% 30.05 in 0.5 mi Calm Calm - 0.00 in Fog , Snow Snow
11:39 AM 30.2 °F - 30.2 °F 100% 30.05 in 0.5 mi Calm Calm - 0.01 in Fog , Snow Snow
11:53 AM 30.9 °F 27.5 °F 30.0 °F 96% 30.08 in 0.5 mi West 3.5 mph - 0.01 in Fog , Snow Snow
12:03 PM 30.2 °F 26.7 °F 30.2 °F 100% 30.04 in 0.8 mi Variable 3.5 mph - 0.00 in Snow Light Snow
12:10 PM 30.2 °F 26.7 °F 30.2 °F 100% 30.04 in 1.0 mi North 3.5 mph - 0.00 in Snow Light Snow
12:38 PM 30.2 °F 25.4 °F 30.2 °F 100% 30.04 in 1.0 mi NW 4.6 mph - 0.01 in Snow Light Snow
12:45 PM 32.0 °F 27.5 °F 30.2 °F 93% 30.03 in 1.5 mi NNW 4.6 mph - 0.01 in Snow Light Snow
12:53 PM 32.0 °F 27.5 °F 28.9 °F 88% 30.06 in 3.0 mi WNW 4.6 mph - 0.01 in Snow Light Snow
1:14 PM 32.0 °F 28.7 °F 30.2 °F 93% 30.03 in 2.0 mi NW 3.5 mph - 0.00 in Snow Light Snow
1:34 PM 33.8 °F 28.6 °F 30.2 °F 87% 30.02 in 1.2 mi North 5.8 mph - 0.00 in Snow Light Snow
1:53 PM 32.0 °F 27.5 °F 30.0 °F 92% 30.05 in 1.0 mi NW 4.6 mph - 0.00 in Snow Light Snow
1:57 PM 32.0 °F 27.5 °F 30.2 °F 93% 30.02 in 0.8 mi NNW 4.6 mph - 0.00 in Snow Light Snow
2:04 PM 30.2 °F 25.4 °F 30.2 °F 100% 30.02 in 0.8 mi NNW 4.6 mph - 0.00 in Snow Light Snow
2:11 PM 30.2 °F 25.4 °F 30.2 °F 100% 30.02 in 0.5 mi NW 4.6 mph - 0.01 in Fog , Snow Snow
2:41 PM 30.2 °F 26.7 °F 30.2 °F 100% 30.02 in 0.8 mi NW 3.5 mph - 0.03 in Snow Light Snow
2:43 PM 30.2 °F 26.7 °F 30.2 °F 100% 30.03 in 1.0 mi WNW 3.5 mph - 0.03 in Snow Light Snow
2:53 PM 30.9 °F 25.2 °F 30.0 °F 96% 30.05 in 1.2 mi NW 5.8 mph - 0.03 in Snow Light Snow
2:59 PM 30.2 °F 26.7 °F 30.2 °F 100% 30.02 in 2.5 mi NW 3.5 mph - 0.00 in Snow Light Snow
3:05 PM 32.0 °F 28.7 °F 30.2 °F 93% 30.02 in 6.0 mi WNW 3.5 mph - 0.00 in Snow Light Snow
3:21 PM 32.0 °F - 30.2 °F 93% 30.02 in 8.0 mi Calm Calm - 0.00 in   Overcast
3:53 PM 34.0 °F 31.0 °F 30.0 °F 85% 30.06 in 7.0 mi WSW 3.5 mph - 0.00 in   Overcast
4:38 PM 33.8 °F 28.6 °F 28.4 °F 81% 30.03 in 10.0 mi WNW 5.8 mph - N/A   Overcast
4:53 PM 34.0 °F 28.0 °F 28.0 °F 79% 30.06 in 10.0 mi WNW 6.9 mph - N/A   Overcast
5:08 PM 33.8 °F 25.8 °F 28.4 °F 81% 30.03 in 6.0 mi NNW 10.4 mph - 0.00 in Snow Light Snow
5:16 PM 33.8 °F 25.8 °F 28.4 °F 81% 30.04 in 9.0 mi NW 10.4 mph - 0.00 in   Overcast
5:53 PM 32.0 °F 25.6 °F 28.0 °F 85% 30.08 in 10.0 mi NNW 6.9 mph - 0.00 in   Mostly Cloudy
6:09 PM 30.2 °F 19.8 °F 28.4 °F 93% 30.05 in 2.0 mi North 13.8 mph - 0.00 in Snow Light Snow
6:15 PM 30.2 °F 20.8 °F 28.4 °F 93% 30.06 in 1.8 mi NNW 11.5 mph - 0.00 in Snow Light Snow
6:24 PM 30.2 °F 21.3 °F 28.4 °F 93% 30.06 in 2.5 mi NNW 10.4 mph - 0.00 in Snow Light Snow
6:38 PM 30.2 °F 19.8 °F 26.6 °F 86% 30.07 in 5.0 mi NNW 13.8 mph - 0.00 in Snow Light Snow
6:53 PM 30.0 °F 19.1 °F 27.0 °F 88% 30.11 in 2.5 mi NNW 15.0 mph - 0.00 in Snow Light Snow
7:03 PM 28.4 °F 17.5 °F 24.8 °F 86% 30.08 in 3.0 mi NNW 13.8 mph - 0.00 in Snow Light Snow
7:30 PM 28.4 °F 22.2 °F 24.8 °F 86% 30.09 in 10.0 mi North 5.8 mph - 0.00 in   Overcast
7:53 PM 28.0 °F 20.8 °F 24.1 °F 85% 30.12 in 10.0 mi North 6.9 mph - 0.00 in   Overcast
8:53 PM 24.1 °F 18.2 °F 21.9 °F 91% 30.14 in 10.0 mi West 4.6 mph - N/A   Partly Cloudy
9:53 PM 26.1 °F 21.9 °F 23.0 °F 88% 30.14 in 10.0 mi WNW 3.5 mph - N/A   Overcast
10:53 PM 26.1 °F 19.4 °F 21.9 °F 84% 30.14 in 10.0 mi WNW 5.8 mph - N/A   Mostly Cloudy
11:53 PM 27.0 °F 20.5 °F 21.9 °F 81% 30.13 in 10.0 mi NW 5.8 mph - N/A   Overcast